Showing default

R2, 46913

Orbit data source: Space-Track

R2, 46913 is a payload satellite owned by NanoAvionics (LT) in LEO that was launched on Sat, 07 Nov 2020 UTC via a PSLV-DL launch vehicle from the Sirharikota (SRI). Payloads include a variety of satellites, spacecraft, and rockets equipped with specific instruments for various scientific and technological missions. These include communications satellites like Starlink; space stations such as the ISS; scientific satellites like the Hubble; Earth observation satellites from companies like Planet Labs, Umbra, and HawkEye 360; GPS; miniature CubeSats for education and research; and military/defense satellites.

Loading next visibility...
R2 details
Identifier
46913, 2020-081J
Orbit
LEO
Last TLE update19 hours ago
Origin
Flag of LTNanoAvionics (LT / LTU)
ManufacturerNanoAvionics US
MissionOperational Commercial Technology
Bus & MotorCUBESAT 6U, Unknown motor
Mass6.8 kg wet, 6.8 kg dry
Launch date (UTC)
2020-11-07 (4 years ago)
Launch vehicle
PSLV-DL
Launch site
Sirharikota (SRI)
Object type
Payload
Rocket body
Debris
Shape & HBRBox, Unknown HBR
Radar Cross Section0.080 m², Medium (>0.1 m² and < 1m²)

Expand to show TLE details & history

TLE from 19 hours ago
0 R2
1 46913U 20081J   24360.65520099  .00015476  00000-0  83304-3 0  9999
2 46913  36.8999 112.3686 0010081  89.3925 270.7976 15.14150719226554
Epoch: 2024-12-25T15:43Z
Definitive object data (Epoch: 2024-12-25T15:43:29.365Z)
Latitude0.00002°
Longitude141.85044°
Altitude522.58 km
Speed7.604 km/s
True Right ascension07h 29m 28s
True Declination0° 00' 00"
Sunlit
Object was in full shadow at TLE epoch
Visualization TLE readout
Latitude-0.09864°
Longitude136.92834°
Altitude523.334 km
Speed7.603 km/s
Apparent Right ascension04h 08m 57s
Apparent Declination-40° 37' 13"
Sunlit
Object is in full shadow
Visualization observer readout
Local Sidereal Time10:04:09
Azimuth236.121° WSW
Elevation-23.927°
Doppler factor1
Orbital elements
Apogee altitude533.454 km
Perigee altitude519.533 km
Semi-major axis6,904.631 km
Eccentricity0.0010081
Inclination36.8999°
RAAN112.3686°
Arg. of periapsis89.3925°
True anomaly270.68209°
Mean anomaly270.7976°
Eccentric anomaly270.73984°
Mean motion3.78297 °/min
BSTAR0.00083304
Orbital period95.16 mins
Loading maneuver chart data...
Loading historical data...
Loading historical data...
Loading historical data...
Loading historical data...
Loading historical data...
Loading historical data...
Loading historical data...

R2 Visibility forecast

Observer location: undefined°, undefined

Span
Click to sort rows by Start time (UTC) header in descending order
Start Az.
Max El. time (UTC)
Max El. Az.
Max El.
End time (UTC)
End Az.
5 mins2024-12-26 10:55:55.953Z195.655° SSW2024-12-26 10:57:55.953Z162.92° S17.799°2024-12-26 11:00:55.953Z111.096° ESE
6 mins2024-12-26 12:35:55.953Z232.133° WSW2024-12-26 12:37:55.953Z181.536° SSW34.946°2024-12-26 12:41:55.953Z96.43° ESE
6 mins2024-12-26 14:15:55.953Z254.069° W2024-12-26 14:17:55.953Z205.523° SW37.653°2024-12-26 14:21:55.953Z109.296° ESE
5 mins2024-12-26 15:55:55.953Z248.71° W2024-12-26 15:57:55.953Z208.6° SW24.28°2024-12-26 16:00:55.953Z147.899° SSE
|